Home > Time Zones > World Clock > Weather > Iran > Rasht > Past weeks

Flag for Iran Weather past 2 weeks in Rasht, Iran

Now
79 °F

Passing clouds.


Feels Like: 82 °F
Forecast: 67 / 86 °F
Wind: 7 mph from Northeast

Location: Rasht Airport

Current Time: Aug 30, 2015 at 10:53:59 PM

Latest Report: Aug 30, 2015 at 8:00 PM


Visibility: N/A

Pressure: 29.92 "Hg

Humidity: 79%

Dew point: 72 °F

Location of RashtLocation

Historic Weather in Rasht — Graph

°F

Rasht temperature yesterday

Maximum temperature yesterday: 79 °F (at 3:30 PM)
Minimum temperature yesterday: 70 °F (at 12:30 AM)
Average temperature yesterday: 74 °F

Past Weeks' High & Low Weather Summary

 TemperatureHumidityPressure
High95 °F (Aug 16, 2:30 PM)100% (Aug 16, 6:30 AM)30.12 "Hg (Aug 16, 6:30 AM)
Low66 °F (Aug 27, 1:30 AM)39% (Aug 17, 3:30 PM)29.53 "Hg (Aug 17, 2:30 AM)
Average78 °F79%29.89 "Hg
* Reported Aug 15 8:00 PM — Aug 30 8:00 PM, Rasht, Weather by CustomWeather, © 2015

Note: Actual official high and low records may vary slightly from our data, if they occured in-between our weather recording intervals... More about our weather records

Advertising

Rasht weather history for previous 24 hours

 ConditionsComfort  
Time TempWeatherWind HumidityBarometerVisibility
8:00 PM
Sun, Aug 30
79 °FPassing clouds.7 mph79%29.92 "HgN/A
7:30 PM79 °FPassing clouds.7 mph79%29.92 "HgN/A
7:00 PM81 °FPassing clouds.9 mph74%29.92 "HgN/A
6:30 PM81 °FPassing clouds.9 mph74%29.92 "HgN/A
6:00 PM84 °FPassing clouds.9 mph66%29.92 "HgN/A
5:30 PM84 °FPassing clouds.9 mph66%29.92 "HgN/A
5:00 PM84 °FPassing clouds.9 mph66%29.92 "HgN/A
4:30 PM84 °FPassing clouds.9 mph66%29.92 "HgN/A
4:00 PM84 °FPassing clouds.7 mph66%29.92 "HgN/A
3:30 PM84 °FPassing clouds.7 mph66%29.92 "HgN/A
3:00 PM84 °FPassing clouds.7 mph66%29.95 "HgN/A
2:30 PM84 °FScattered clouds.7 mph66%29.95 "HgN/A
2:00 PM84 °FPassing clouds.5 mph58%29.95 "HgN/A
1:30 PM84 °FPassing clouds.5 mph58%29.95 "HgN/A
1:00 PM82 °FSunny.No wind58%29.98 "Hg10 mi
12:30 PM82 °FSunny.No wind58%29.98 "Hg10 mi
12:00 PM81 °FSunny.5 mph54%29.98 "Hg10 mi
11:30 AM81 °FSunny.5 mph54%29.98 "Hg10 mi
11:00 AM79 °FSunny.No wind61%30.01 "Hg10 mi
10:30 AM79 °FSunny.No wind61%30.01 "Hg10 mi
10:00 AM77 °FScattered clouds.No wind65%30.01 "HgN/A
9:30 AM77 °FScattered clouds.No wind65%30.01 "HgN/A
9:00 AM72 °FPassing clouds.2 mph78%30.01 "HgN/A
8:00 AM68 °FPassing clouds.No wind88%30.01 "HgN/A
7:30 AM68 °FPassing clouds.No wind88%30.01 "HgN/A
7:00 AM68 °FPartly cloudy.No wind94%30.01 "HgN/A
6:30 AM68 °FPartly cloudy.No wind94%30.01 "HgN/A
5:30 AM68 °FPartly cloudy.No wind94%30.04 "HgN/A
10:30 PM
Sat, Aug 29
72 °FPassing clouds.No wind83%30.07 "HgN/A
10:00 PM73 °FPassing clouds.No wind83%30.07 "HgN/A
Weather by CustomWeather, © 2015

See weather overviewHow to use our weather pages